DAL7326 GOBD-LIRF

Flight info

Callsign DAL7326
Flight time N/A
Altitude 37000
Route SAKLI1B SAKLI UR975 SEPEL DCT MINBA DCT ZRT UR975 ECHED DCT OJD UA411 ALR UG26 REQIN DCT ORKUM DCT ELSAG DCT ALG DCT MINKA DCT ROMPO DCT BATOX DCT TINTO DCT VALMA
Aircraft A20N/M-SDE2E3FGHIRWXY/LB1

Departure

Time 2026-04-26 21:53
Airport Blaise Diagne International Airport (GOBD)

Arrival

Time N/A
Airport Rome–Fiumicino Leonardo da Vinci International Airport (LIRF)
Time Latitude Longitude Altitude Speed Heading
2026-04-26 21:43 14.66950 -17.07091 272 ft 6 kts 184°
2026-04-26 21:44 14.66907 -17.07093 272 ft 7 kts 183°
2026-04-26 21:44 14.66850 -17.07098 272 ft 9 kts 185°
2026-04-26 21:44 14.66789 -17.07102 273 ft 8 kts 179°
2026-04-26 21:44 14.66747 -17.07099 273 ft 6 kts 175°
2026-04-26 21:45 14.66699 -17.07092 273 ft 8 kts 169°
2026-04-26 21:45 14.66642 -17.07077 274 ft 9 kts 162°
2026-04-26 21:45 14.66595 -17.07070 274 ft 6 kts 181°
2026-04-26 21:45 14.66555 -17.07072 274 ft 6 kts 184°
2026-04-26 21:46 14.66507 -17.07077 274 ft 7 kts 186°
2026-04-26 21:46 14.66503 -17.07078 274 ft 0 kts 186°
2026-04-26 21:47 14.66502 -17.07078 274 ft 0 kts 186°
2026-04-26 21:47 14.66500 -17.07078 274 ft 1 kts 186°
2026-04-26 21:47 14.66490 -17.07079 274 ft 2 kts 184°
2026-04-26 21:48 14.66486 -17.07079 274 ft 0 kts 183°
2026-04-26 21:48 14.66479 -17.07079 274 ft 0 kts 182°
2026-04-26 21:48 14.66476 -17.07079 274 ft 1 kts 181°
2026-04-26 21:48 14.66464 -17.07079 275 ft 2 kts 180°
2026-04-26 21:49 14.66443 -17.07079 275 ft 4 kts 180°
2026-04-26 21:49 14.66411 -17.07079 275 ft 5 kts 178°
2026-04-26 21:49 14.66368 -17.07078 275 ft 7 kts 180°
2026-04-26 21:49 14.66317 -17.07079 275 ft 8 kts 182°
2026-04-26 21:50 14.66256 -17.07081 276 ft 9 kts 180°
2026-04-26 21:50 14.66212 -17.07080 276 ft 10 kts 179°
2026-04-26 21:50 14.66110 -17.07076 277 ft 12 kts 178°
2026-04-26 21:50 14.66024 -17.07073 277 ft 13 kts 178°
2026-04-26 21:51 14.65927 -17.07073 278 ft 15 kts 182°
2026-04-26 21:51 14.65822 -17.07076 278 ft 16 kts 181°
2026-04-26 21:51 14.65708 -17.07079 279 ft 17 kts 181°
2026-04-26 21:51 14.65589 -17.07072 280 ft 17 kts 181°
2026-04-26 21:52 14.65525 -17.07142 280 ft 15 kts 266°
2026-04-26 21:52 14.65538 -17.07253 280 ft 15 kts 307°
2026-04-26 21:52 14.65631 -17.07266 279 ft 15 kts 360°
2026-04-26 21:52 14.65946 -17.07271 276 ft 78 kts 358°
2026-04-26 21:53 14.66684 -17.07280 275 ft 131 kts 359°
2026-04-26 21:53 14.67704 -17.07297 371 ft 163 kts 359°
2026-04-26 21:53 14.68901 -17.07278 818 ft 173 kts
2026-04-26 21:53 14.70161 -17.07225 1234 ft 189 kts
2026-04-26 21:54 14.71527 -17.07138 1726 ft 202 kts
2026-04-26 21:54 14.72965 -17.07013 2247 ft 210 kts
2026-04-26 21:54 14.74448 -17.06854 2594 ft 226 kts
2026-04-26 21:54 14.76088 -17.06640 3000 ft 241 kts
2026-04-26 21:55 14.77771 -17.06406 3465 ft 252 kts
2026-04-26 21:55 14.79518 -17.06595 4129 ft 253 kts 347°
2026-04-26 21:55 14.81251 -17.06962 4795 ft 257 kts 348°
2026-04-26 21:55 14.83032 -17.07234 5435 ft 261 kts 352°
2026-04-26 21:56 14.84855 -17.07390 6062 ft 266 kts 355°
2026-04-26 21:56 14.86713 -17.07466 6677 ft 270 kts 356°
2026-04-26 21:56 14.88612 -17.07499 7242 ft 275 kts 357°
2026-04-26 21:56 14.90536 -17.07516 7842 ft 279 kts 357°
2026-04-26 21:57 14.92483 -17.07529 8450 ft 282 kts 357°
2026-04-26 21:57 14.94456 -17.07544 9062 ft 285 kts 357°
2026-04-26 21:57 14.96459 -17.07560 9675 ft 289 kts 357°
2026-04-26 21:57 14.98488 -17.07578 10144 ft 298 kts 357°
2026-04-26 21:58 15.00636 -17.07600 10312 ft 318 kts 357°
2026-04-26 21:58 15.02911 -17.07624 10487 ft 337 kts 357°
2026-04-26 21:58 15.05328 -17.07648 10716 ft 352 kts 357°
2026-04-26 21:58 15.07796 -17.07669 11241 ft 357 kts 357°
2026-04-26 21:59 15.10292 -17.07690 11834 ft 360 kts 357°
2026-04-26 21:59 15.12813 -17.07712 12410 ft 364 kts 357°
2026-04-26 21:59 15.15351 -17.07735 12992 ft 367 kts 357°
2026-04-26 21:59 15.17926 -17.07759 13577 ft 371 kts 357°
2026-04-26 22:00 15.20512 -17.07783 14107 ft 374 kts 357°
2026-04-26 22:00 15.23130 -17.07807 14686 ft 375 kts 356°
2026-04-26 22:00 15.25702 -17.07830 15245 ft 376 kts 356°
2026-04-26 22:00 15.28330 -17.07855 15811 ft 377 kts 356°
2026-04-26 22:01 15.30956 -17.07868 16359 ft 379 kts 359°
2026-04-26 22:01 15.33577 -17.07399 16866 ft 386 kts 16°
2026-04-26 22:01 15.35995 -17.06162 17334 ft 394 kts 32°
2026-04-26 22:01 15.38138 -17.04349 17806 ft 398 kts 37°
2026-04-26 22:02 15.40254 -17.02483 18274 ft 401 kts 37°
2026-04-26 22:02 15.41667 -17.01239 18535 ft 402 kts 37°
2026-04-26 22:02 15.44535 -16.98722 19011 ft 406 kts 37°
2026-04-26 22:02 15.46706 -16.96821 19375 ft 409 kts 37°
2026-04-26 22:03 15.48148 -16.95558 19624 ft 411 kts 37°
2026-04-26 22:03 15.51060 -16.93011 20082 ft 416 kts 37°
2026-04-26 22:03 15.52560 -16.91698 20312 ft 418 kts 37°
2026-04-26 22:03 15.54785 -16.89750 20680 ft 421 kts 37°
2026-04-26 22:04 15.57770 -16.87135 21156 ft 425 kts 37°
2026-04-26 22:04 15.59301 -16.85794 21378 ft 427 kts 37°
2026-04-26 22:04 15.61581 -16.83797 21708 ft 430 kts 37°
2026-04-26 22:04 15.63877 -16.81785 22051 ft 433 kts 37°
2026-04-26 22:05 15.66155 -16.79789 22371 ft 436 kts 37°
2026-04-26 22:05 15.68485 -16.77746 22726 ft 439 kts 37°
2026-04-26 22:05 15.70826 -16.75692 23051 ft 442 kts 37°
2026-04-26 22:05 15.73190 -16.73618 23387 ft 445 kts 37°
2026-04-26 22:06 15.75560 -16.71539 23679 ft 448 kts 37°
2026-04-26 22:06 15.77942 -16.69446 23981 ft 449 kts 37°
2026-04-26 22:06 15.80336 -16.67343 24291 ft 451 kts 37°
2026-04-26 22:06 15.82733 -16.65236 24578 ft 453 kts 37°
2026-04-26 22:07 15.85120 -16.63137 24858 ft 455 kts 37°
2026-04-26 22:07 15.87544 -16.61006 25152 ft 456 kts 37°
2026-04-26 22:07 15.90000 -16.58845 25440 ft 458 kts 37°
2026-04-26 22:07 15.92407 -16.56727 25709 ft 460 kts 37°
2026-04-26 22:08 15.94879 -16.54551 25971 ft 461 kts 36°
2026-04-26 22:08 15.97302 -16.52418 26248 ft 463 kts 36°
2026-04-26 22:08 15.99762 -16.50250 26506 ft 464 kts 36°
2026-04-26 22:08 16.02235 -16.48072 26760 ft 466 kts 36°
2026-04-26 22:09 16.04712 -16.45901 27009 ft 467 kts 34°
2026-04-26 22:09 16.07339 -16.43906 27248 ft 466 kts 30°
2026-04-26 22:09 16.09987 -16.41956 27492 ft 468 kts 30°
2026-04-26 22:09 16.12656 -16.39985 27730 ft 469 kts 30°
2026-04-26 22:10 16.15303 -16.38027 27958 ft 471 kts 30°
2026-04-26 22:10 16.17982 -16.36042 28191 ft 472 kts 30°
2026-04-26 22:10 16.20659 -16.34059 28426 ft 473 kts 30°
2026-04-26 22:10 16.23344 -16.32069 28634 ft 475 kts 30°
2026-04-26 22:11 16.26047 -16.30066 28858 ft 477 kts 30°
2026-04-26 22:11 16.28717 -16.28085 29067 ft 478 kts 30°
2026-04-26 22:11 16.31462 -16.26050 29280 ft 479 kts 30°
2026-04-26 22:11 16.34146 -16.24058 29479 ft 480 kts 30°
2026-04-26 22:12 16.36874 -16.22033 29686 ft 482 kts 30°
2026-04-26 22:12 16.39615 -16.19998 29885 ft 483 kts 30°
2026-04-26 22:12 16.42350 -16.17966 30086 ft 485 kts 30°
2026-04-26 22:12 16.45107 -16.15918 30257 ft 486 kts 30°
2026-04-26 22:13 16.47861 -16.13872 30407 ft 488 kts 30°
2026-04-26 22:13 16.50631 -16.11812 30583 ft 489 kts 29°
2026-04-26 22:13 16.53412 -16.09743 30755 ft 491 kts 29°
2026-04-26 22:13 16.56198 -16.07669 30912 ft 493 kts 29°
2026-04-26 22:14 16.58990 -16.05589 31112 ft 493 kts 29°
2026-04-26 22:14 16.61783 -16.03507 31333 ft 494 kts 29°
2026-04-26 22:14 16.64577 -16.01423 31556 ft 493 kts 29°
2026-04-26 22:14 16.67374 -15.99337 31777 ft 493 kts 29°
2026-04-26 22:15 16.70124 -15.97286 31976 ft 494 kts 29°
2026-04-26 22:15 16.72920 -15.95199 32175 ft 494 kts 29°
2026-04-26 22:15 16.75721 -15.93109 32371 ft 494 kts 29°
2026-04-26 22:15 16.78510 -15.91026 32563 ft 494 kts 29°
2026-04-26 22:16 16.81313 -15.88932 32741 ft 495 kts 29°
2026-04-26 22:16 16.84110 -15.86842 32938 ft 495 kts 29°
2026-04-26 22:16 16.86917 -15.84744 33109 ft 495 kts 29°
2026-04-26 22:16 16.89708 -15.82656 33278 ft 495 kts 29°
2026-04-26 22:17 16.92516 -15.80556 33436 ft 495 kts 29°
2026-04-26 22:17 16.95311 -15.78464 33594 ft 495 kts 29°
2026-04-26 22:17 16.98112 -15.76367 33755 ft 496 kts 29°
2026-04-26 22:17 17.00920 -15.74263 33907 ft 496 kts 29°
2026-04-26 22:18 17.03718 -15.72167 34042 ft 496 kts 29°
2026-04-26 22:18 17.06521 -15.70066 34184 ft 495 kts 29°
2026-04-26 22:18 17.09327 -15.67962 34307 ft 495 kts 29°
2026-04-26 22:18 17.12132 -15.65859 34419 ft 496 kts 29°
2026-04-26 22:19 17.14928 -15.63761 34539 ft 496 kts 29°
2026-04-26 22:19 17.17737 -15.61652 34665 ft 496 kts 29°
2026-04-26 22:19 17.20540 -15.59548 34779 ft 496 kts 29°
2026-04-26 22:19 17.23300 -15.57476 34879 ft 496 kts 29°
2026-04-26 22:20 17.26090 -15.55380 34997 ft 496 kts 29°
2026-04-26 22:20 17.28906 -15.53264 35107 ft 496 kts 29°
2026-04-26 22:20 17.31715 -15.51152 35211 ft 496 kts 29°
2026-04-26 22:20 17.34513 -15.49048 35319 ft 496 kts 29°
2026-04-26 22:21 17.37299 -15.46952 35423 ft 496 kts 29°
2026-04-26 22:21 17.40110 -15.44836 35527 ft 496 kts 29°
2026-04-26 22:21 17.45726 -15.40606 35723 ft 496 kts 29°
2026-04-26 22:22 17.51339 -15.36376 35914 ft 496 kts 29°
2026-04-26 22:22 17.56940 -15.32150 36102 ft 496 kts 29°
2026-04-26 22:23 17.62544 -15.27919 36270 ft 497 kts 29°
2026-04-26 22:23 17.68164 -15.23676 36425 ft 497 kts 29°
2026-04-26 22:24 17.73742 -15.19465 36568 ft 497 kts 29°
2026-04-26 22:24 17.79360 -15.15220 36731 ft 498 kts 29°
2026-04-26 22:25 17.85066 -15.11167 36854 ft 491 kts 21°
2026-04-26 22:25 17.91049 -15.07649 36913 ft 493 kts 22°
2026-04-26 22:26 17.97037 -15.04099 36910 ft 494 kts 22°
2026-04-26 22:26 18.03033 -15.00543 36905 ft 494 kts 22°
2026-04-26 22:27 18.09038 -14.96982 36903 ft 495 kts 22°
2026-04-26 22:27 18.15044 -14.93417 36903 ft 496 kts 22°
2026-04-26 22:28 18.21016 -14.89870 36894 ft 496 kts 22°
2026-04-26 22:28 18.27020 -14.86301 36892 ft 496 kts 21°
2026-04-26 22:29 18.33037 -14.82722 36901 ft 496 kts 21°
2026-04-26 22:29 18.39060 -14.79136 36895 ft 497 kts 21°
2026-04-26 22:30 18.45082 -14.75548 36890 ft 497 kts 21°
2026-04-26 22:30 18.51109 -14.71954 36891 ft 498 kts 21°
2026-04-26 22:31 18.57108 -14.68374 36894 ft 498 kts 21°
2026-04-26 22:31 18.63174 -14.64750 36899 ft 499 kts 21°
2026-04-26 22:32 18.69180 -14.61160 36899 ft 499 kts 21°
2026-04-26 22:32 18.75234 -14.57538 36899 ft 500 kts 21°
2026-04-26 22:33 18.84324 -14.52093 36901 ft 501 kts 21°
2026-04-26 22:34 18.90390 -14.48456 36900 ft 501 kts 21°
2026-04-26 22:34 18.96458 -14.44815 36907 ft 502 kts 21°
2026-04-26 22:35 19.02527 -14.41171 36907 ft 502 kts 21°
2026-04-26 22:35 19.08615 -14.37511 36898 ft 502 kts 21°
2026-04-26 22:36 19.14647 -14.33883 36901 ft 502 kts 21°
2026-04-26 22:36 19.20732 -14.30219 36908 ft 502 kts 21°
2026-04-26 22:37 19.26811 -14.26556 36911 ft 503 kts 22°
2026-04-26 22:37 19.32885 -14.22892 36910 ft 503 kts 22°
2026-04-26 22:38 19.38967 -14.19221 36907 ft 503 kts 22°
2026-04-26 22:38 19.45022 -14.15563 36910 ft 503 kts 22°
2026-04-26 22:39 19.51100 -14.11888 36909 ft 503 kts 22°
2026-04-26 22:39 19.57180 -14.08208 36909 ft 503 kts 22°
2026-04-26 22:40 19.63261 -14.04525 36909 ft 503 kts 22°
2026-04-26 22:40 19.69351 -14.00833 36909 ft 504 kts 22°
2026-04-26 22:41 19.75445 -13.97168 36902 ft 501 kts 19°
2026-04-26 22:41 19.81740 -13.94049 36908 ft 498 kts 17°
2026-04-26 22:42 19.87992 -13.90974 36906 ft 498 kts 17°
2026-04-26 22:42 19.94298 -13.87867 36913 ft 499 kts 17°
2026-04-26 22:43 20.00577 -13.84771 36919 ft 499 kts 17°
2026-04-26 22:43 20.06886 -13.81657 36916 ft 500 kts 17°
2026-04-26 22:44 20.13203 -13.78537 36919 ft 501 kts 17°
2026-04-26 22:44 20.19533 -13.75407 36919 ft 501 kts 17°
2026-04-26 22:45 20.25832 -13.72290 36927 ft 502 kts 17°
2026-04-26 22:45 20.32177 -13.69147 36923 ft 503 kts 17°
2026-04-26 22:46 20.38513 -13.66006 36921 ft 503 kts 17°
2026-04-26 22:46 20.44867 -13.62853 36936 ft 504 kts 17°
2026-04-26 22:47 20.51231 -13.59692 36928 ft 504 kts 17°
2026-04-26 22:47 20.57603 -13.56525 36935 ft 505 kts 17°
2026-04-26 22:48 20.63943 -13.53369 36937 ft 506 kts 17°
2026-04-26 22:48 20.70293 -13.50206 36928 ft 504 kts 17°
2026-04-26 22:49 20.75591 -13.47566 36928 ft 505 kts 17°
2026-04-26 22:49 20.81960 -13.44388 36927 ft 505 kts 17°
2026-04-26 22:50 20.89372 -13.40687 36931 ft 506 kts 17°
2026-04-26 22:50 20.94665 -13.38041 36933 ft 506 kts 17°
2026-04-26 22:51 21.01057 -13.34843 36926 ft 506 kts 17°
2026-04-26 22:51 21.07428 -13.31652 36931 ft 506 kts 17°
2026-04-26 22:52 21.13813 -13.28452 36937 ft 506 kts 17°
2026-04-26 22:52 21.20195 -13.25250 36938 ft 506 kts 17°
2026-04-26 22:53 21.26584 -13.22041 36942 ft 507 kts 17°
2026-04-26 22:53 21.32958 -13.18837 36943 ft 507 kts 17°
2026-04-26 22:54 21.39327 -13.15632 36946 ft 507 kts 18°
2026-04-26 22:54 21.45720 -13.12412 36948 ft 507 kts 18°
2026-04-26 22:55 21.52102 -13.09195 36952 ft 507 kts 18°
2026-04-26 22:55 21.58498 -13.05967 36953 ft 507 kts 18°
2026-04-26 22:56 21.64877 -13.02744 36947 ft 506 kts 18°
2026-04-26 22:56 21.71251 -12.99520 36950 ft 505 kts 18°
2026-04-26 22:57 21.77605 -12.96305 36949 ft 505 kts 18°
2026-04-26 22:57 21.83940 -12.93096 36948 ft 504 kts 18°
2026-04-26 22:58 21.90273 -12.89884 36952 ft 504 kts 18°
2026-04-26 22:58 21.96609 -12.86667 36951 ft 503 kts 18°
2026-04-26 22:59 22.02942 -12.83449 36945 ft 503 kts 18°
2026-04-26 22:59 22.09269 -12.80231 36943 ft 502 kts 18°
2026-04-26 23:00 22.15585 -12.77016 36942 ft 502 kts 18°
2026-04-26 23:00 22.21905 -12.73795 36947 ft 501 kts 18°
2026-04-26 23:01 22.28213 -12.70577 36937 ft 501 kts 18°
2026-04-26 23:01 22.34478 -12.67378 36938 ft 502 kts 19°
2026-04-26 23:02 22.40791 -12.64151 36947 ft 502 kts 19°
2026-04-26 23:02 22.47142 -12.60901 36952 ft 502 kts 19°
2026-04-26 23:03 22.53427 -12.57682 36962 ft 503 kts 19°
2026-04-26 23:03 22.59754 -12.54438 36965 ft 504 kts 19°
2026-04-26 23:04 22.66096 -12.51184 36979 ft 505 kts 19°
2026-04-26 23:04 22.72443 -12.47923 36977 ft 505 kts 19°
2026-04-26 23:05 22.78896 -12.45047 36980 ft 498 kts 11°
2026-04-26 23:05 22.85468 -12.42672 36978 ft 497 kts 12°
2026-04-26 23:06 22.91996 -12.40292 36979 ft 497 kts 12°
2026-04-26 23:06 22.98559 -12.37897 36985 ft 497 kts 12°
2026-04-26 23:07 23.05121 -12.35502 36986 ft 497 kts 12°
2026-04-26 23:07 23.11679 -12.33106 36986 ft 498 kts 12°
2026-04-26 23:08 23.18244 -12.30705 36992 ft 498 kts 12°
2026-04-26 23:08 23.24821 -12.28297 36996 ft 498 kts 12°
2026-04-26 23:09 23.31400 -12.25885 36996 ft 498 kts 12°
2026-04-26 23:09 23.37974 -12.23473 36999 ft 498 kts 12°
2026-04-26 23:10 23.44547 -12.21059 36997 ft 498 kts 12°
2026-04-26 23:10 23.51121 -12.18642 37000 ft 498 kts 12°
2026-04-26 23:11 23.57686 -12.16225 36997 ft 498 kts 12°
2026-04-26 23:11 23.64254 -12.13805 37001 ft 497 kts 13°
2026-04-26 23:12 23.70794 -12.11393 36989 ft 497 kts 13°
2026-04-26 23:12 23.77317 -12.08984 36993 ft 497 kts 13°
2026-04-26 23:13 23.83858 -12.06567 36994 ft 496 kts 13°
2026-04-26 23:13 23.90402 -12.04145 36990 ft 496 kts 13°
2026-04-26 23:14 23.96945 -12.01721 36985 ft 495 kts 13°
2026-04-26 23:14 24.03474 -11.99300 36985 ft 495 kts 13°
2026-04-26 23:15 24.09991 -11.96881 36982 ft 494 kts 13°
2026-04-26 23:15 24.16503 -11.94460 36984 ft 494 kts 13°
2026-04-26 23:16 24.23007 -11.92041 36977 ft 493 kts 13°
2026-04-26 23:16 24.29510 -11.89619 36980 ft 493 kts 13°
2026-04-26 23:17 24.35963 -11.87213 36981 ft 493 kts 13°
2026-04-26 23:17 24.42452 -11.84791 36981 ft 492 kts 13°
2026-04-26 23:18 24.48935 -11.82368 36980 ft 492 kts 14°
2026-04-26 23:18 24.55429 -11.79939 36987 ft 492 kts 14°
2026-04-26 23:19 24.61893 -11.77519 36989 ft 492 kts 14°
2026-04-26 23:19 24.68386 -11.75084 36986 ft 491 kts 14°
2026-04-26 23:20 24.74818 -11.72670 36990 ft 491 kts 14°
2026-04-26 23:20 24.81285 -11.70241 36988 ft 491 kts 14°
2026-04-26 23:21 24.87754 -11.67808 36991 ft 491 kts 14°
2026-04-26 23:21 24.94222 -11.65373 36988 ft 491 kts 14°
2026-04-26 23:22 25.00686 -11.62936 36994 ft 491 kts 14°
2026-04-26 23:22 25.07159 -11.60493 36990 ft 491 kts 14°
2026-04-26 23:23 25.13624 -11.58051 36994 ft 491 kts 14°
2026-04-26 23:23 25.20094 -11.55604 36995 ft 492 kts 14°
2026-04-26 23:24 25.26545 -11.53061 36995 ft 493 kts 17°
2026-04-26 23:24 25.32813 -11.50430 37002 ft 493 kts 17°
2026-04-26 23:25 25.39384 -11.47692 37008 ft 493 kts 17°
2026-04-26 23:25 25.45810 -11.45030 37010 ft 493 kts 17°
2026-04-26 23:26 25.52236 -11.42368 37022 ft 493 kts 17°
2026-04-26 23:26 25.58654 -11.39705 37025 ft 493 kts 17°
2026-04-26 23:27 25.65065 -11.37042 37005 ft 491 kts 17°
2026-04-26 23:27 25.71467 -11.34380 37009 ft 491 kts 17°
2026-04-26 23:28 25.77830 -11.31731 37008 ft 491 kts 17°
2026-04-26 23:28 25.84233 -11.29062 37005 ft 491 kts 17°
2026-04-26 23:29 25.90630 -11.26393 37010 ft 491 kts 17°
2026-04-26 23:29 25.97030 -11.23720 37004 ft 491 kts 17°
2026-04-26 23:30 26.03421 -11.21046 37004 ft 491 kts 17°
2026-04-26 23:30 26.09829 -11.18363 37004 ft 491 kts 17°
2026-04-26 23:31 26.16216 -11.15685 37005 ft 491 kts 17°
2026-04-26 23:31 26.22577 -11.13016 37005 ft 491 kts 17°
2026-04-26 23:32 26.29015 -11.10310 37006 ft 491 kts 17°
2026-04-26 23:32 26.35367 -11.07638 37001 ft 491 kts 17°
2026-04-26 23:33 26.41766 -11.04943 37007 ft 491 kts 17°
2026-04-26 23:33 26.48162 -11.02246 37004 ft 491 kts 17°
2026-04-26 23:34 26.54553 -10.99547 37006 ft 491 kts 17°
2026-04-26 23:34 26.60936 -10.96849 37001 ft 491 kts 17°
2026-04-26 23:35 26.67315 -10.94149 37005 ft 490 kts 18°
2026-04-26 23:35 26.72622 -10.91901 36999 ft 490 kts 18°
2026-04-26 23:36 26.78997 -10.89197 36993 ft 489 kts 18°
2026-04-26 23:36 26.85372 -10.86489 36992 ft 489 kts 18°
2026-04-26 23:37 26.91720 -10.83790 36989 ft 489 kts 18°
2026-04-26 23:37 26.98085 -10.81080 36987 ft 488 kts 18°
2026-04-26 23:38 27.04426 -10.78377 36980 ft 488 kts 18°
2026-04-26 23:38 27.10776 -10.75668 36981 ft 488 kts 18°
2026-04-26 23:39 27.17124 -10.72956 36980 ft 488 kts 18°
2026-04-26 23:39 27.23468 -10.70242 36977 ft 487 kts 18°
2026-04-26 23:40 27.29814 -10.67524 36977 ft 487 kts 18°
2026-04-26 23:40 27.36141 -10.64811 36976 ft 488 kts 18°
2026-04-26 23:41 27.42479 -10.62089 36974 ft 488 kts 18°
2026-04-26 23:41 27.48826 -10.59361 36975 ft 488 kts 18°
2026-04-26 23:42 27.55177 -10.56628 36980 ft 488 kts 18°
2026-04-26 23:42 27.64565 -10.52261 36962 ft 491 kts 27°
2026-04-26 23:43 27.70151 -10.47862 36953 ft 493 kts 41°
2026-04-26 23:43 27.75110 -10.42509 36949 ft 493 kts 43°
2026-04-26 23:44 27.80074 -10.37143 36964 ft 493 kts 43°
2026-04-26 23:44 27.85034 -10.31776 36958 ft 494 kts 43°
2026-04-26 23:45 27.89992 -10.26399 36968 ft 494 kts 43°
2026-04-26 23:45 27.94944 -10.21022 36955 ft 494 kts 43°
2026-04-26 23:46 27.99865 -10.15670 36952 ft 493 kts 43°
2026-04-26 23:46 28.04806 -10.10289 36954 ft 493 kts 43°
2026-04-26 23:47 28.09750 -10.04897 36945 ft 493 kts 43°
2026-04-26 23:47 28.14721 -9.99465 36949 ft 493 kts 43°
2026-04-26 23:48 28.19620 -9.94103 36931 ft 492 kts 43°
2026-04-26 23:48 28.24544 -9.88707 36925 ft 492 kts 43°
2026-04-26 23:49 28.29465 -9.83308 36920 ft 491 kts 44°
2026-04-26 23:49 28.34373 -9.77916 36911 ft 491 kts 44°
2026-04-26 23:50 28.39276 -9.72520 36899 ft 491 kts 44°
2026-04-26 23:50 28.44169 -9.67129 36916 ft 490 kts 44°
2026-04-26 23:51 28.49061 -9.61732 36901 ft 490 kts 44°
2026-04-26 23:51 28.53947 -9.56334 36891 ft 489 kts 44°
2026-04-26 23:52 28.58820 -9.50943 36900 ft 489 kts 44°
2026-04-26 23:52 28.63696 -9.45542 36881 ft 488 kts 44°
2026-04-26 23:53 28.68532 -9.40177 36893 ft 488 kts 44°
2026-04-26 23:53 28.73403 -9.34767 36886 ft 489 kts 44°
2026-04-26 23:54 28.78262 -9.29361 36889 ft 488 kts 44°
2026-04-26 23:54 28.83124 -9.23946 36876 ft 488 kts 44°
2026-04-26 23:55 28.87987 -9.18522 36872 ft 488 kts 44°
2026-04-26 23:55 28.92846 -9.13094 36885 ft 488 kts 44°
2026-04-26 23:56 28.97674 -9.07693 36886 ft 488 kts 44°
2026-04-26 23:56 29.02531 -9.02254 36871 ft 488 kts 44°
2026-04-26 23:57 29.07379 -8.96816 36858 ft 489 kts 44°
2026-04-26 23:57 29.12230 -8.91367 36854 ft 489 kts 44°
2026-04-26 23:58 29.17083 -8.85909 36850 ft 489 kts 44°
2026-04-26 23:58 29.21928 -8.80452 36851 ft 489 kts 44°
2026-04-26 23:59 29.26775 -8.74985 36875 ft 489 kts 44°
2026-04-26 23:59 29.31623 -8.69510 36861 ft 489 kts 44°
2026-04-27 00:00 29.36429 -8.64074 36868 ft 489 kts 44°
2026-04-27 00:00 29.41260 -8.58603 36872 ft 488 kts 44°
2026-04-27 00:01 29.46092 -8.53122 36860 ft 488 kts 44°
2026-04-27 00:01 29.50915 -8.47643 36863 ft 487 kts 44°
2026-04-27 00:02 29.55733 -8.42162 36867 ft 488 kts 44°
2026-04-27 00:02 29.60547 -8.36678 36895 ft 488 kts 44°
2026-04-27 00:03 29.65377 -8.31169 36896 ft 489 kts 44°
2026-04-27 00:03 29.70197 -8.25663 36880 ft 487 kts 44°
2026-04-27 00:04 29.75007 -8.20160 36896 ft 487 kts 44°
2026-04-27 00:04 29.79815 -8.14651 36909 ft 488 kts 44°
2026-04-27 00:05 29.84627 -8.09130 36916 ft 487 kts 44°
2026-04-27 00:05 29.89386 -8.03664 36919 ft 488 kts 44°
2026-04-27 00:06 29.94195 -7.98130 36923 ft 489 kts 44°
2026-04-27 00:06 29.99004 -7.92589 36925 ft 487 kts 44°
2026-04-27 00:07 30.03797 -7.87057 36941 ft 487 kts 44°
2026-04-27 00:07 30.08585 -7.81525 36932 ft 487 kts 44°
2026-04-27 00:08 30.13380 -7.75976 36939 ft 487 kts 45°
2026-04-27 00:08 30.18135 -7.70464 36942 ft 487 kts 45°
2026-04-27 00:09 30.22908 -7.64923 36944 ft 485 kts 45°
2026-04-27 00:09 30.27668 -7.59391 36942 ft 484 kts 45°
2026-04-27 00:10 30.32419 -7.53861 36945 ft 484 kts 45°
2026-04-27 00:10 30.37165 -7.48328 36949 ft 483 kts 45°
2026-04-27 00:11 30.41905 -7.42794 36976 ft 486 kts 45°
2026-04-27 00:11 30.46651 -7.37247 36984 ft 488 kts 45°
2026-04-27 00:12 30.51422 -7.31660 37015 ft 487 kts 45°
2026-04-27 00:12 30.56183 -7.26077 36995 ft 487 kts 45°
2026-04-27 00:13 30.60977 -7.20447 37008 ft 487 kts 45°
2026-04-27 00:13 30.65708 -7.14882 36992 ft 487 kts 45°
2026-04-27 00:14 30.70470 -7.09273 37001 ft 486 kts 45°
2026-04-27 00:14 30.75219 -7.03671 36999 ft 486 kts 45°
2026-04-27 00:15 30.79950 -6.98081 37005 ft 485 kts 45°
2026-04-27 00:15 30.84660 -6.92509 37008 ft 485 kts 45°
2026-04-27 00:16 30.89382 -6.86914 37004 ft 485 kts 45°
2026-04-27 00:16 30.94106 -6.81308 37005 ft 485 kts 45°
2026-04-27 00:17 30.98830 -6.75694 37002 ft 485 kts 45°
2026-04-27 00:17 31.03555 -6.70070 37006 ft 486 kts 45°
2026-04-27 00:18 31.08289 -6.64427 37011 ft 486 kts 45°
2026-04-27 00:18 31.13017 -6.58782 37023 ft 487 kts 45°
2026-04-27 00:19 31.17753 -6.53119 37033 ft 488 kts 45°
2026-04-27 00:19 31.21684 -6.48412 37048 ft 488 kts 45°
2026-04-27 00:20 31.26433 -6.42719 37060 ft 489 kts 45°
2026-04-27 00:20 31.31179 -6.37019 37056 ft 489 kts 45°
2026-04-27 00:21 31.35909 -6.31330 37063 ft 488 kts 45°
2026-04-27 00:21 31.40648 -6.25622 37073 ft 488 kts 45°
2026-04-27 00:22 31.45371 -6.19923 37078 ft 488 kts 45°
2026-04-27 00:22 31.50105 -6.14205 37082 ft 489 kts 45°
2026-04-27 00:23 31.54832 -6.08484 37091 ft 489 kts 45°
2026-04-27 00:23 31.59558 -6.02755 37097 ft 489 kts 45°
2026-04-27 00:24 31.64293 -5.97007 37101 ft 489 kts 45°
2026-04-27 00:24 31.69015 -5.91265 37101 ft 488 kts 45°
2026-04-27 00:25 31.73721 -5.85534 37100 ft 488 kts 45°
2026-04-27 00:25 31.78423 -5.79799 37097 ft 486 kts 45°
2026-04-27 00:26 31.83110 -5.74075 37095 ft 486 kts 45°
2026-04-27 00:26 31.87779 -5.68361 37093 ft 486 kts 45°
2026-04-27 00:27 31.92489 -5.62589 37098 ft 486 kts 45°
2026-04-27 00:27 31.97170 -5.56845 37103 ft 487 kts 45°
2026-04-27 00:28 32.01836 -5.51110 37105 ft 487 kts 45°
2026-04-27 00:28 32.06517 -5.45346 37114 ft 487 kts 45°
2026-04-27 00:29 32.11203 -5.39568 37115 ft 487 kts 45°
2026-04-27 00:29 32.15880 -5.33792 37111 ft 487 kts 45°
2026-04-27 00:30 32.20566 -5.27995 37115 ft 488 kts 45°
2026-04-27 00:30 32.25231 -5.22215 37105 ft 486 kts 45°
2026-04-27 00:31 32.29901 -5.16420 37101 ft 486 kts 45°
2026-04-27 00:31 32.34557 -5.10632 37101 ft 485 kts 45°
2026-04-27 00:32 32.39216 -5.04832 37104 ft 486 kts 45°
2026-04-27 00:32 32.43873 -4.99025 37108 ft 486 kts 45°
2026-04-27 00:33 32.48497 -4.93250 37108 ft 486 kts 45°
2026-04-27 00:33 32.53179 -4.87393 37106 ft 484 kts 45°
2026-04-27 00:34 32.57773 -4.81634 37101 ft 483 kts 45°
2026-04-27 00:34 32.62397 -4.75832 37105 ft 484 kts 45°
2026-04-27 00:35 32.67013 -4.70031 37105 ft 483 kts 45°
2026-04-27 00:35 32.71622 -4.64227 37104 ft 483 kts 45°
2026-04-27 00:36 32.76231 -4.58416 37108 ft 483 kts 45°
2026-04-27 00:36 32.80845 -4.52587 37109 ft 484 kts 45°
2026-04-27 00:37 32.85461 -4.46747 37105 ft 484 kts 45°
2026-04-27 00:37 32.90042 -4.40942 37105 ft 484 kts 45°
2026-04-27 00:38 32.94649 -4.35095 37088 ft 483 kts 45°
2026-04-27 00:38 32.99230 -4.29269 37084 ft 482 kts 45°
2026-04-27 00:39 33.03824 -4.23420 37081 ft 483 kts 45°
2026-04-27 00:39 33.08408 -4.17573 37078 ft 482 kts 45°
2026-04-27 00:40 33.12978 -4.11734 37072 ft 482 kts 45°
2026-04-27 00:40 33.17556 -4.05875 37077 ft 482 kts 45°
2026-04-27 00:41 33.22092 -4.00060 37075 ft 481 kts 45°
2026-04-27 00:41 33.26651 -3.94207 37073 ft 481 kts 45°
2026-04-27 00:42 33.31212 -3.88342 37073 ft 481 kts 45°
2026-04-27 00:42 33.35763 -3.82480 37078 ft 481 kts 45°
2026-04-27 00:43 33.40303 -3.76621 37074 ft 480 kts 46°
2026-04-27 00:43 33.44848 -3.70748 37075 ft 480 kts 46°
2026-04-27 00:44 33.49384 -3.64876 37076 ft 479 kts 46°
2026-04-27 00:44 33.53908 -3.59010 37076 ft 479 kts 46°
2026-04-27 00:45 33.58401 -3.53173 37076 ft 479 kts 46°
2026-04-27 00:45 33.62912 -3.47305 37078 ft 478 kts 46°
2026-04-27 00:46 33.67423 -3.41425 37076 ft 478 kts 46°
2026-04-27 00:46 33.71924 -3.35551 37076 ft 477 kts 46°
2026-04-27 00:47 33.76412 -3.29682 37073 ft 477 kts 46°
2026-04-27 00:47 33.80901 -3.23803 37069 ft 477 kts 46°
2026-04-27 00:48 33.85394 -3.17909 37071 ft 476 kts 46°
2026-04-27 00:48 33.89870 -3.12027 37069 ft 476 kts 46°
2026-04-27 00:49 33.94298 -3.06198 37066 ft 476 kts 46°
2026-04-27 00:49 33.98766 -3.00308 37066 ft 476 kts 46°
2026-04-27 00:50 34.05456 -2.91468 37071 ft 476 kts 46°
2026-04-27 00:51 34.09911 -2.85569 37068 ft 476 kts 46°
2026-04-27 00:51 34.14356 -2.79674 37067 ft 476 kts 46°
2026-04-27 00:52 34.18802 -2.73766 37066 ft 476 kts 46°
2026-04-27 00:52 34.23255 -2.67835 37064 ft 475 kts 46°
2026-04-27 00:53 34.27693 -2.61920 37065 ft 476 kts 46°
2026-04-27 00:53 34.32150 -2.55967 37061 ft 476 kts 46°
2026-04-27 00:54 34.36559 -2.50071 37063 ft 476 kts 46°
2026-04-27 00:54 34.41000 -2.44121 37071 ft 476 kts 46°
2026-04-27 00:55 34.45437 -2.38166 37074 ft 476 kts 46°
2026-04-27 00:55 34.49880 -2.32198 37077 ft 477 kts 46°
2026-04-27 00:56 34.54318 -2.26228 37083 ft 477 kts 46°
2026-04-27 00:56 34.58761 -2.20243 37089 ft 477 kts 46°
2026-04-27 00:57 34.63203 -2.14247 37099 ft 477 kts 46°
2026-04-27 00:57 34.67650 -2.08234 37102 ft 478 kts 45°
2026-04-27 00:58 34.72087 -2.02223 37112 ft 478 kts 45°
2026-04-27 00:58 34.76483 -1.96253 37113 ft 478 kts 46°
2026-04-27 00:59 34.80716 -1.90015 37109 ft 478 kts 47°
2026-04-27 00:59 34.84993 -1.83821 37109 ft 478 kts 47°
2026-04-27 01:00 34.89183 -1.77522 37103 ft 478 kts 49°
2026-04-27 01:00 34.93308 -1.71171 37095 ft 478 kts 49°
2026-04-27 01:01 34.97408 -1.64870 37084 ft 477 kts 49°
2026-04-27 01:01 35.01546 -1.58514 37075 ft 477 kts 49°
2026-04-27 01:02 35.05696 -1.52132 37070 ft 477 kts 49°
2026-04-27 01:02 35.09119 -1.46858 37071 ft 476 kts 49°
2026-04-27 01:03 35.13228 -1.40517 37072 ft 476 kts 49°
2026-04-27 01:03 35.17329 -1.34175 37077 ft 476 kts 49°
2026-04-27 01:04 35.21449 -1.27794 37082 ft 476 kts 49°
2026-04-27 01:04 35.25550 -1.21430 37073 ft 476 kts 49°
2026-04-27 01:05 35.29652 -1.15053 37083 ft 476 kts 49°
2026-04-27 01:05 35.33712 -1.08731 37087 ft 476 kts 49°
2026-04-27 01:06 35.37810 -1.02336 37087 ft 476 kts 49°
2026-04-27 01:06 35.41903 -0.95938 37085 ft 476 kts 49°
2026-04-27 01:07 35.45993 -0.89533 37090 ft 476 kts 49°
2026-04-27 01:07 35.50080 -0.83120 37092 ft 476 kts 49°
2026-04-27 01:08 35.54096 -0.76808 37098 ft 476 kts 49°
2026-04-27 01:08 35.58199 -0.70348 37104 ft 476 kts 49°
2026-04-27 01:09 35.61842 -0.63635 37102 ft 479 kts 60°
2026-04-27 01:09 35.64678 -0.56117 37073 ft 480 kts 64°
2026-04-27 01:10 35.67412 -0.48648 37071 ft 480 kts 64°
2026-04-27 01:10 35.70146 -0.41155 37076 ft 480 kts 64°
2026-04-27 01:11 35.72848 -0.33712 37089 ft 480 kts 64°
2026-04-27 01:11 35.75570 -0.26191 37082 ft 480 kts 64°
2026-04-27 01:12 35.78274 -0.18701 37080 ft 480 kts 64°
2026-04-27 01:12 35.80983 -0.11179 37077 ft 480 kts 64°
2026-04-27 01:13 35.83672 -0.03695 37080 ft 480 kts 64°
2026-04-27 01:13 35.86382 0.03866 37086 ft 480 kts 64°
2026-04-27 01:14 35.89075 0.11398 37081 ft 480 kts 64°
2026-04-27 01:14 35.91738 0.18926 37080 ft 481 kts 65°
2026-04-27 01:15 35.94370 0.26499 37081 ft 481 kts 65°
2026-04-27 01:15 35.97000 0.34070 37076 ft 481 kts 65°
2026-04-27 01:16 35.99635 0.41661 37081 ft 481 kts 65°
2026-04-27 01:16 36.02269 0.49269 37075 ft 481 kts 65°
2026-04-27 01:17 36.04894 0.56869 37084 ft 481 kts 65°
2026-04-27 01:17 36.07518 0.64482 37069 ft 481 kts 65°
2026-04-27 01:18 36.10116 0.72042 37071 ft 481 kts 65°
2026-04-27 01:18 36.12720 0.79638 37071 ft 481 kts 65°
2026-04-27 01:19 36.15324 0.87252 37077 ft 481 kts 65°
2026-04-27 01:19 36.17933 0.94898 37078 ft 481 kts 65°
2026-04-27 01:20 36.20531 1.02535 37081 ft 481 kts 65°
2026-04-27 01:20 36.23114 1.10145 37091 ft 482 kts 65°
2026-04-27 01:21 36.25704 1.17796 37095 ft 482 kts 65°
2026-04-27 01:21 36.28314 1.25524 37098 ft 483 kts 65°
2026-04-27 01:22 36.30883 1.33152 37105 ft 483 kts 65°
2026-04-27 01:22 36.33472 1.40858 37104 ft 483 kts 65°
2026-04-27 01:23 36.36049 1.48548 37104 ft 484 kts 65°
2026-04-27 01:23 36.38666 1.56253 37106 ft 484 kts 65°
2026-04-27 01:24 36.41317 1.63933 37102 ft 484 kts 65°
2026-04-27 01:24 36.43950 1.71604 37098 ft 482 kts 65°
2026-04-27 01:25 36.46571 1.79273 37100 ft 483 kts 65°
2026-04-27 01:25 36.49190 1.86959 37092 ft 483 kts 65°
2026-04-27 01:26 36.51805 1.94651 37102 ft 484 kts 65°
2026-04-27 01:26 36.54418 2.02361 37099 ft 483 kts 65°
2026-04-27 01:27 36.57009 2.10022 37099 ft 482 kts 65°
2026-04-27 01:27 36.59439 2.17845 37098 ft 483 kts 72°
2026-04-27 01:28 36.60761 2.26037 37095 ft 483 kts 84°
2026-04-27 01:28 36.61503 2.34362 37091 ft 483 kts 83°
2026-04-27 01:29 36.62261 2.42621 37088 ft 483 kts 83°
2026-04-27 01:29 36.63011 2.50935 37085 ft 483 kts 83°
2026-04-27 01:30 36.63752 2.59260 37087 ft 483 kts 83°
2026-04-27 01:30 36.64483 2.67551 37087 ft 483 kts 83°
2026-04-27 01:31 36.65207 2.75824 37090 ft 484 kts 83°
2026-04-27 01:31 36.65931 2.84168 37098 ft 485 kts 83°
2026-04-27 01:32 36.66652 2.92532 37112 ft 486 kts 83°
2026-04-27 01:32 36.67366 3.00898 37121 ft 486 kts 83°
2026-04-27 01:33 36.68075 3.09268 37130 ft 487 kts 83°
2026-04-27 01:33 36.68794 3.17675 37132 ft 487 kts 81°
2026-04-27 01:34 36.70367 3.25865 37135 ft 486 kts 69°
2026-04-27 01:34 36.72710 3.33785 37137 ft 486 kts 68°
2026-04-27 01:35 36.75021 3.41691 37131 ft 487 kts 69°
2026-04-27 01:35 36.77328 3.49600 37128 ft 487 kts 69°
2026-04-27 01:36 36.80364 3.57063 37114 ft 481 kts 52°
2026-04-27 01:36 36.84745 3.63294 37110 ft 476 kts 40°
2026-04-27 01:37 36.89552 3.68978 37109 ft 475 kts 40°
2026-04-27 01:37 36.94342 3.74686 37109 ft 475 kts 40°
2026-04-27 01:38 36.99112 3.80374 37112 ft 474 kts 40°
2026-04-27 01:38 37.03889 3.86078 37115 ft 474 kts 40°
2026-04-27 01:39 37.08628 3.91738 37120 ft 473 kts 40°
2026-04-27 01:39 37.13455 3.97428 37120 ft 473 kts 40°
2026-04-27 01:40 37.18207 4.03028 37124 ft 472 kts 40°
2026-04-27 01:40 37.22984 4.08679 37111 ft 469 kts 40°
2026-04-27 01:41 37.27721 4.14296 37117 ft 469 kts 40°
2026-04-27 01:41 37.32468 4.19935 37118 ft 468 kts 41°
2026-04-27 01:42 37.37168 4.25529 37116 ft 467 kts 41°
2026-04-27 01:42 37.41885 4.31154 37118 ft 466 kts 41°
2026-04-27 01:43 37.46586 4.36768 37114 ft 465 kts 41°
2026-04-27 01:43 37.51264 4.42367 37120 ft 465 kts 41°
2026-04-27 01:44 37.55941 4.47974 37120 ft 464 kts 41°
2026-04-27 01:44 37.60614 4.53587 37120 ft 463 kts 41°
2026-04-27 01:45 37.65267 4.59186 37119 ft 462 kts 41°
2026-04-27 01:45 37.69927 4.64803 37121 ft 462 kts 41°
2026-04-27 01:46 37.74540 4.70374 37125 ft 461 kts 41°
2026-04-27 01:46 37.79181 4.75990 37122 ft 461 kts 41°
2026-04-27 01:47 37.83815 4.81606 37126 ft 461 kts 42°
2026-04-27 01:47 37.87691 4.86313 37128 ft 461 kts 42°
2026-04-27 01:48 37.92315 4.91936 37131 ft 461 kts 42°
2026-04-27 01:48 37.96908 4.97532 37138 ft 461 kts 42°
2026-04-27 01:49 38.01529 5.03160 37143 ft 460 kts 42°
2026-04-27 01:49 38.06156 5.08774 37147 ft 460 kts 42°
2026-04-27 01:50 38.10780 5.14390 37145 ft 460 kts 42°
2026-04-27 01:50 38.15401 5.20019 37146 ft 459 kts 42°
2026-04-27 01:51 38.19990 5.25621 37146 ft 459 kts 42°
2026-04-27 01:51 38.24597 5.31254 37146 ft 459 kts 42°
2026-04-27 01:52 38.29172 5.36860 37146 ft 458 kts 42°
2026-04-27 01:52 38.33767 5.42499 37141 ft 458 kts 42°
2026-04-27 01:53 38.38337 5.48119 37144 ft 458 kts 42°
2026-04-27 01:53 38.42942 5.53792 37139 ft 458 kts 43°
2026-04-27 01:54 38.47522 5.59445 37140 ft 458 kts 43°
2026-04-27 01:54 38.52098 5.65103 37140 ft 458 kts 43°
2026-04-27 01:55 38.56668 5.70766 37144 ft 458 kts 43°
2026-04-27 01:55 38.61213 5.76407 37144 ft 458 kts 43°
2026-04-27 01:56 38.68066 5.84932 37150 ft 458 kts 43°
2026-04-27 01:56 38.72634 5.90628 37153 ft 458 kts 43°
2026-04-27 01:57 38.77210 5.96346 37153 ft 458 kts 43°
2026-04-27 01:57 38.81747 6.02025 37158 ft 458 kts 43°
2026-04-27 01:58 38.86309 6.07747 37159 ft 459 kts 43°
2026-04-27 01:58 38.90867 6.13474 37161 ft 459 kts 43°
2026-04-27 01:59 38.95427 6.19216 37166 ft 459 kts 43°
2026-04-27 01:59 39.00129 6.24742 37163 ft 457 kts 36°
2026-04-27 02:00 39.05464 6.29162 37164 ft 456 kts 29°
2026-04-27 02:00 39.10905 6.33358 37165 ft 456 kts 30°
2026-04-27 02:01 39.16347 6.37567 37166 ft 455 kts 30°
2026-04-27 02:01 39.21780 6.41766 37174 ft 455 kts 30°
2026-04-27 02:02 39.27209 6.45967 37169 ft 455 kts 30°
2026-04-27 02:02 39.32633 6.50172 37173 ft 454 kts 30°
2026-04-27 02:03 39.38033 6.54366 37176 ft 454 kts 30°
2026-04-27 02:03 39.43456 6.58585 37177 ft 453 kts 30°
2026-04-27 02:04 39.48854 6.62794 37152 ft 453 kts 30°
2026-04-27 02:04 39.54218 6.66982 37157 ft 452 kts 30°
2026-04-27 02:05 39.59602 6.71194 37168 ft 452 kts 30°
2026-04-27 02:05 39.64989 6.75417 37166 ft 451 kts 30°
2026-04-27 02:06 39.70349 6.79625 37165 ft 451 kts 30°
2026-04-27 02:06 39.75712 6.83844 37158 ft 451 kts 30°
2026-04-27 02:07 39.81083 6.88077 37172 ft 451 kts 30°
2026-04-27 02:07 39.86413 6.92285 37163 ft 451 kts 30°
2026-04-27 02:08 39.91778 6.96529 37164 ft 451 kts 30°
2026-04-27 02:08 39.97143 7.00781 37160 ft 451 kts 30°
2026-04-27 02:09 40.02508 7.05041 37162 ft 451 kts 30°
2026-04-27 02:09 40.07868 7.09305 37170 ft 451 kts 30°
2026-04-27 02:10 40.13237 7.13584 37167 ft 452 kts 30°
2026-04-27 02:10 40.18602 7.17868 37172 ft 452 kts 30°
2026-04-27 02:11 40.23964 7.22158 37171 ft 452 kts 30°
2026-04-27 02:11 40.29318 7.26449 37166 ft 452 kts 30°
2026-04-27 02:12 40.34638 7.30720 37174 ft 452 kts 30°
2026-04-27 02:12 40.40019 7.35049 37170 ft 453 kts 30°
2026-04-27 02:13 40.45386 7.39375 37167 ft 453 kts 30°
2026-04-27 02:13 40.50687 7.43855 37170 ft 454 kts 38°
2026-04-27 02:14 40.54848 7.50078 37166 ft 457 kts 58°
2026-04-27 02:14 40.56260 7.53813 37158 ft 457 kts 69°
2026-04-27 02:14 40.57149 7.57775 37155 ft 458 kts 79°
2026-04-27 02:15 40.57923 7.66091 37151 ft 458 kts 83°
2026-04-27 02:15 40.58646 7.74443 37160 ft 459 kts 83°
2026-04-27 02:16 40.59360 7.82796 37164 ft 460 kts 83°
2026-04-27 02:16 40.60060 7.91100 37165 ft 460 kts 83°
2026-04-27 02:17 40.60761 7.99490 37161 ft 461 kts 83°
2026-04-27 02:17 40.61458 8.07892 37170 ft 461 kts 84°
2026-04-27 02:18 40.62151 8.16304 37169 ft 462 kts 84°
2026-04-27 02:18 40.63217 8.24642 37169 ft 462 kts 74°
2026-04-27 02:19 40.65399 8.32589 37166 ft 461 kts 66°
2026-04-27 02:19 40.67853 8.40356 37167 ft 461 kts 67°
2026-04-27 02:20 40.70284 8.48124 37172 ft 461 kts 67°
2026-04-27 02:20 40.72724 8.55934 37175 ft 462 kts 67°
2026-04-27 02:21 40.75171 8.63783 37183 ft 462 kts 67°
2026-04-27 02:21 40.77605 8.71613 37183 ft 462 kts 67°
2026-04-27 02:22 40.80037 8.79458 37194 ft 461 kts 67°
2026-04-27 02:22 40.82461 8.87298 37185 ft 461 kts 67°
2026-04-27 02:23 40.84889 8.95130 37180 ft 461 kts 67°
2026-04-27 02:23 40.87317 9.02967 37184 ft 460 kts 67°
2026-04-27 02:24 40.89722 9.10763 37178 ft 460 kts 67°
2026-04-27 02:24 40.92136 9.18613 37166 ft 460 kts 67°
2026-04-27 02:25 40.94541 9.26455 37160 ft 460 kts 67°
2026-04-27 02:25 40.96940 9.34304 37156 ft 460 kts 67°
2026-04-27 02:26 40.99333 9.42156 37152 ft 460 kts 67°
2026-04-27 02:26 41.01722 9.50017 37150 ft 460 kts 67°
2026-04-27 02:27 41.04110 9.57896 37153 ft 460 kts 67°
2026-04-27 02:27 41.06489 9.65770 37154 ft 460 kts 67°
2026-04-27 02:28 41.08860 9.73641 37158 ft 460 kts 67°
2026-04-27 02:28 41.11228 9.81545 37155 ft 461 kts 68°
2026-04-27 02:29 41.13572 9.89461 37160 ft 461 kts 68°
2026-04-27 02:29 41.15912 9.97382 37159 ft 461 kts 68°
2026-04-27 02:30 41.18235 10.05265 37165 ft 462 kts 68°
2026-04-27 02:30 41.20572 10.13214 37166 ft 462 kts 68°
2026-04-27 02:31 41.22912 10.21169 37168 ft 462 kts 68°
2026-04-27 02:31 41.25257 10.29098 37169 ft 462 kts 68°
2026-04-27 02:32 41.27228 10.35786 37173 ft 463 kts 68°
2026-04-27 02:32 41.29545 10.43680 37170 ft 463 kts 68°
2026-04-27 02:33 41.31867 10.51616 37175 ft 463 kts 68°
2026-04-27 02:33 41.34184 10.59559 37171 ft 463 kts 68°
2026-04-27 02:34 41.36505 10.67542 37174 ft 463 kts 68°
2026-04-27 02:34 41.38815 10.75509 37173 ft 463 kts 68°
2026-04-27 02:35 41.41138 10.83547 37173 ft 463 kts 68°
2026-04-27 02:35 41.43434 10.91519 37172 ft 463 kts 68°
2026-04-27 02:36 41.45743 10.99557 37170 ft 463 kts 68°
2026-04-27 02:36 41.48034 11.07556 37170 ft 462 kts 68°
2026-04-27 02:37 41.50303 11.15593 37167 ft 462 kts 68°
2026-04-27 02:37 41.52546 11.23594 37167 ft 462 kts 68°
2026-04-27 02:38 41.54794 11.31628 37168 ft 462 kts 68°
2026-04-27 02:38 41.57039 11.39668 37166 ft 462 kts 68°
2026-04-27 02:39 41.59282 11.47721 37155 ft 462 kts 68°
2026-04-27 02:39 41.61518 11.55770 37151 ft 462 kts 68°
2026-04-27 02:40 41.63753 11.63831 37162 ft 462 kts 68°
2026-04-27 02:40 41.65989 11.71907 37164 ft 462 kts 68°
2026-04-27 02:41 41.68201 11.79917 37162 ft 462 kts 68°
2026-04-27 02:41 41.70429 11.88000 37147 ft 463 kts 68°
2026-04-27 02:42 41.72653 11.96088 37147 ft 463 kts 68°
2026-04-27 02:42 41.74872 12.04170 37158 ft 463 kts 68°
2026-04-27 02:43 41.77093 12.12275 37157 ft 463 kts 68°
2026-04-27 02:43 41.79308 12.20378 37156 ft 463 kts 68°
2026-04-27 02:44 41.81504 12.28422 37164 ft 463 kts 68°
2026-04-27 02:44 41.83717 12.36548 37161 ft 463 kts 68°
2026-04-27 02:45 41.85925 12.44674 37162 ft 464 kts 68°
2026-04-27 02:45 41.88129 12.52805 37161 ft 464 kts 68°
2026-04-27 02:46 41.90331 12.60944 37161 ft 464 kts 68°
2026-04-27 02:46 41.92528 12.69081 37161 ft 464 kts 68°
2026-04-27 02:47 41.94724 12.77226 37169 ft 464 kts 68°
2026-04-27 02:47 41.96918 12.85381 37172 ft 464 kts 68°
2026-04-27 02:48 41.99111 12.93547 37180 ft 464 kts 68°
2026-04-27 02:48 42.01297 13.01705 37181 ft 464 kts 68°
2026-04-27 02:49 42.03479 13.09866 37186 ft 464 kts 68°
2026-04-27 02:49 42.05663 13.18048 37190 ft 464 kts 68°
2026-04-27 02:50 42.07840 13.26219 37190 ft 464 kts 68°
2026-04-27 02:50 42.10009 13.34376 37189 ft 463 kts 68°
2026-04-27 02:51 42.12180 13.42553 37190 ft 463 kts 68°
2026-04-27 02:51 42.14330 13.50671 37190 ft 463 kts 68°
2026-04-27 02:52 42.16493 13.58850 37188 ft 463 kts 69°
2026-04-27 02:52 42.18653 13.67034 37182 ft 463 kts 69°
2026-04-27 02:53 42.20811 13.75223 37172 ft 463 kts 69°
2026-04-27 02:53 42.22968 13.83419 37167 ft 462 kts 69°
2026-04-27 02:54 42.25102 13.91546 37151 ft 462 kts 69°
2026-04-27 02:54 42.27245 13.99719 37134 ft 462 kts 69°
2026-04-27 02:55 42.29385 14.07893 37129 ft 462 kts 69°
2026-04-27 02:55 42.31529 14.16090 37129 ft 462 kts 69°
2026-04-27 02:56 42.33672 14.24298 37128 ft 462 kts 69°
2026-04-27 02:56 42.35807 14.32484 37128 ft 462 kts 69°
2026-04-27 02:57 42.37949 14.40703 37128 ft 462 kts 69°
2026-04-27 02:57 42.40071 14.48861 37124 ft 462 kts 69°
2026-04-27 02:58 42.42203 14.57065 37116 ft 462 kts 69°
2026-04-27 02:58 42.44333 14.65272 37114 ft 462 kts 69°
2026-04-27 02:59 42.46462 14.73488 37115 ft 462 kts 69°
2026-04-27 02:59 42.48587 14.81696 37114 ft 462 kts 69°
2026-04-27 03:00 42.50713 14.89920 37110 ft 462 kts 69°
2026-04-27 03:00 42.52833 14.98136 37111 ft 462 kts 69°
2026-04-27 03:01 42.54956 15.06371 37117 ft 462 kts 69°
2026-04-27 03:01 42.57076 15.14603 37118 ft 462 kts 69°
2026-04-27 03:02 42.59194 15.22839 37116 ft 462 kts 69°
2026-04-27 03:02 42.61311 15.31084 37120 ft 462 kts 69°
2026-04-27 03:03 42.64474 15.43420 37125 ft 462 kts 69°
2026-04-27 03:04 42.66584 15.51667 37117 ft 462 kts 69°
2026-04-27 03:04 42.68691 15.59910 37125 ft 462 kts 69°
2026-04-27 03:05 42.70799 15.68167 37127 ft 462 kts 69°
2026-04-27 03:05 42.72909 15.76440 37116 ft 463 kts 69°
2026-04-27 03:06 42.75015 15.84709 37115 ft 463 kts 69°
2026-04-27 03:06 42.77121 15.92988 37113 ft 463 kts 69°
2026-04-27 03:07 42.79228 16.01276 37115 ft 463 kts 69°
2026-04-27 03:07 42.81333 16.09564 37114 ft 463 kts 69°
2026-04-27 03:08 42.83440 16.17861 37115 ft 463 kts 69°
2026-04-27 03:08 42.85551 16.26178 37117 ft 463 kts 69°
2026-04-27 03:09 42.87653 16.34461 37120 ft 464 kts 69°
2026-04-27 03:09 42.89755 16.42741 37118 ft 464 kts 69°
2026-04-27 03:10 42.91859 16.51027 37117 ft 464 kts 69°
2026-04-27 03:10 42.93982 16.59392 37117 ft 464 kts 69°
2026-04-27 03:11 42.96099 16.67729 37117 ft 464 kts 69°
2026-04-27 03:11 42.98215 16.76062 37119 ft 465 kts 69°
2026-04-27 03:12 43.00330 16.84394 37114 ft 465 kts 69°
2026-04-27 03:12 43.02450 16.92741 37121 ft 465 kts 69°
2026-04-27 03:13 43.04567 17.01077 37123 ft 465 kts 69°
2026-04-27 03:13 43.06691 17.09439 37126 ft 465 kts 69°
2026-04-27 03:14 43.08819 17.17818 37126 ft 465 kts 69°
2026-04-27 03:14 43.10583 17.24766 37129 ft 465 kts 69°
2026-04-27 03:15 43.12708 17.33131 37131 ft 465 kts 69°
2026-04-27 03:15 43.14836 17.41508 37129 ft 465 kts 69°
2026-04-27 03:16 43.16963 17.49884 37135 ft 465 kts 69°
2026-04-27 03:16 43.19092 17.58265 37126 ft 466 kts 69°
2026-04-27 03:17 43.21214 17.66619 37132 ft 466 kts 69°
2026-04-27 03:17 43.23355 17.75048 37125 ft 466 kts 69°
2026-04-27 03:18 43.25489 17.83449 37120 ft 467 kts 69°
2026-04-27 03:18 43.27628 17.91867 37131 ft 467 kts 69°
2026-04-27 03:19 43.29757 18.00243 37144 ft 467 kts 69°
2026-04-27 03:19 43.31889 18.08635 37148 ft 468 kts 69°
2026-04-27 03:20 43.34023 18.17040 37166 ft 468 kts 69°
2026-04-27 03:20 43.36169 18.25486 37193 ft 468 kts 69°
2026-04-27 03:21 43.38314 18.33930 37223 ft 468 kts 69°
2026-04-27 03:21 43.40464 18.42393 37233 ft 468 kts 69°
2026-04-27 03:22 43.42614 18.50851 37237 ft 469 kts 69°
2026-04-27 03:22 43.44771 18.59336 37244 ft 468 kts 69°
2026-04-27 03:23 43.46912 18.67761 37251 ft 469 kts 69°
2026-04-27 03:23 43.49061 18.76219 37257 ft 468 kts 69°
2026-04-27 03:24 43.51202 18.84644 37261 ft 468 kts 69°
2026-04-27 03:24 43.53353 18.93111 37266 ft 468 kts 69°
2026-04-27 03:25 43.55503 19.01573 37270 ft 468 kts 69°
2026-04-27 03:25 43.57654 19.10037 37268 ft 468 kts 69°
2026-04-27 03:26 43.59792 19.18451 37270 ft 468 kts 69°
2026-04-27 03:26 43.61947 19.26935 37270 ft 468 kts 69°
2026-04-27 03:27 43.64102 19.35412 37268 ft 468 kts 69°
2026-04-27 03:27 43.66255 19.43888 37271 ft 468 kts 69°
2026-04-27 03:28 43.68405 19.52353 37268 ft 468 kts 69°
2026-04-27 03:28 43.70558 19.60825 37269 ft 468 kts 69°
2026-04-27 03:29 43.72704 19.69271 37269 ft 468 kts 69°
2026-04-27 03:29 43.74865 19.77774 37264 ft 468 kts 69°
2026-04-27 03:30 43.77027 19.86280 37264 ft 468 kts 69°
2026-04-27 03:30 43.79188 19.94784 37264 ft 469 kts 69°
2026-04-27 03:31 43.81350 20.03290 37266 ft 469 kts 69°
2026-04-27 03:31 43.83518 20.11819 37267 ft 469 kts 69°
2026-04-27 03:32 43.85659 20.20239 37265 ft 469 kts 69°
2026-04-27 03:32 43.87827 20.28767 37262 ft 469 kts 69°
2026-04-27 03:33 43.89986 20.37259 37263 ft 469 kts 69°
2026-04-27 03:33 43.92172 20.45857 37260 ft 470 kts 69°
2026-04-27 03:34 43.94321 20.54312 37265 ft 470 kts 69°
2026-04-27 03:34 43.96501 20.62891 37267 ft 471 kts 69°
2026-04-27 03:35 43.98677 20.71457 37265 ft 471 kts 69°